Weather in Kakinada

India     16°56′59″N   82°14′45″E
temp.,
°C
wind,
m/s
gust,
m/s
humid.,
%
clouds,
%
prec.,
mm/h
press.,
hPa
HPBL,
m
12 may, wed
wed1223:30+28e3470100 0.4 1007338
02:30+27nne127399 3.1 1006154
05:30+27w117423 3.1 100697
08:30+32wsw246169 0.0 1007868
11:30+38e23395 0.0 10051888
14:30+37se644343 0.0 10021421
17:30+34s565070 0.1 10021045
20:30+31se2366100 0.2 1004539
13 may, thu
thu1323:30+30ssw147263 0.2 1004334
02:30+30sw257478 0.0 1003633
05:30+29sw147684 0.0 1004367
08:30+31sw246650 0.0 1006981
11:30+38s343919 0.1 10052171
14:30+37sse664478 0.0 10011288
17:30+34s675096 0.0 10021033
20:30+25n4779100 3.1 1006224
14 may, fri
fri1423:30+29s1372100 3.1 1004191
02:30+28n0276100 0.0 1003227
05:30+28nw127798 0.0 1004126
08:30+32sw2462100 0.1 10051166
11:30+38sse2339100 0.1 10032208
14:30+37sse5543100 0.1 10011244
17:30+34s674892 0.3 1001920
20:30+30s347323 1.3 1005432
15 may, sat
sat1523:30+30ssw267794 1.3 1004460
02:30+29ese1380100 0.0 1003269
05:30+29s1380100 0.1 1004183
08:30+31s2464100 0.1 10061142
11:30+36se454431 0.2 10041714
14:30+36se6648100 0.0 10021643
17:30+33se4560100 0.0 10031016
20:30+31sse3571100 0.0 1004680
16 may, sun
sun1623:30+30sse3674100 0.1 1005615
02:30+29s367892 0.7 1003451
05:30+29sse1380100 1.0 1004237
08:30+32se3464100 0.6 10061209
11:30+35se5653100 0.9 10051657
14:30+35se665295 0.0 10031595
17:30+33se566181 0.1 10031149
20:30+31sse357199 0.3 1006746